FW8889 Weather Reports


time (UTC)temp
C
wind
direction
speed
KPH
gust
KPH
rain 1hr
cm
rain 24hr
cm
rain mn
cm
humidity
%
barometer
mb
20260507114601 10 42 1.6 6.4 0.00 0.64 0.10 78 1008.8
20260507113051 9 0 0.0 3.2 0.00 0.64 0.10 78 1008.8
20260507111550 9 0 0.0 3.2 0.00 0.64 0.10 81 1008.2
20260507110050 8 0 0.0 3.2 0.00 0.64 0.10 80 1008.8
20260507104548 9 0 0.0 3.2 0.00 0.64 0.10 84 1008.3
20260507103047 9 0 0.0 6.4 0.00 0.64 0.10 84 1007.9
20260507101552 9 0 1.6 8.0 0.00 0.64 0.10 85 1008.2
20260507100053 9 0 0.0 4.8 0.00 0.64 0.10 86 1007.7
20260507094549 9 0 0.0 4.8 0.00 0.64 0.10 85 1008.0
20260507093054 9 0 0.0 3.2 0.00 0.64 0.10 84 1007.9
20260507091549 9 179 0.0 4.8 0.00 0.64 0.10 84 1008.2
20260507090046 9 0 0.0 6.4 0.00 0.64 0.10 82 1008.1
20260507084551 9 29 3.2 14.5 0.03 0.64 0.10 81 1007.7
20260507083049 10 59 0.0 3.2 0.03 0.64 0.10 86 1007.7
20260507081551 10 0 0.0 4.8 0.03 0.64 0.10 86 1007.8
20260507080050 10 0 1.6 14.5 0.03 0.64 0.10 85 1008.1
20260507074600 10 129 1.6 6.4 0.00 0.61 0.08 85 1008.1
20260507073043 10 39 0.0 4.8 0.00 0.61 0.08 86 1007.5
20260507071550 10 0 0.0 8.0 0.00 0.61 0.08 85 1007.4
20260507070048 10 0 0.0 6.4 0.00 0.61 0.08 85 1007.1
20260507064548 10 0 0.0 3.2 0.00 0.61 0.08 84 1007.2
20260507063049 10 305 0.0 4.8 0.00 0.61 0.08 84 1007.0
20260507061545 10 61 1.6 6.4 0.00 0.61 0.08 84 1007.0
20260507060043 11 36 0.0 12.9 0.00 0.61 0.08 84 1007.1
20260507054623 11 340 0.0 9.7 0.00 0.61 0.08 86 1007.5
20260507053052 11 350 1.6 6.4 0.00 0.61 0.08 87 1007.1
20260507051549 12 340 0.0 6.4 0.05 0.61 0.08 87 1007.5
20260507050055 12 0 0.0 8.0 0.08 0.61 0.08 87 1007.6
20260507044553 13 275 1.6 8.0 0.08 0.61 0.08 87 1007.3
20260507043054 13 0 1.6 8.0 0.08 0.61 0.08 87 1007.0
20260507041556 14 344 1.6 6.4 0.03 0.56 0.03 87 1007.3
20260507040050 14 114 0.0 6.4 0.00 0.53 0.00 86 1007.1
20260507034555 15 75 0.0 4.8 0.00 0.53 0.53 86 1006.6
20260507033056 15 70 0.0 4.8 0.00 0.53 0.53 86 1006.5
20260507031604 15 242 3.2 12.9 0.00 0.53 0.53 86 1006.2
20260507030054 15 137 0.0 4.8 0.00 0.53 0.53 86 1006.1
20260507024552 15 204 0.0 6.4 0.00 0.53 0.53 86 1006.1
20260507023059 15 0 1.6 8.0 0.00 0.53 0.53 86 1006.2
20260507021550 15 0 0.0 6.4 0.00 0.53 0.53 86 1006.1
20260507020055 15 160 1.6 8.0 0.00 0.53 0.53 86 1006.2
20260507014551 15 281 1.6 9.7 0.00 0.53 0.53 86 1006.5
20260507013046 15 0 1.6 8.0 0.00 0.53 0.53 86 1006.5
20260507011549 15 132 0.0 6.4 0.00 0.53 0.53 86 1006.5
20260507010050 15 0 1.6 6.4 0.03 0.53 0.53 86 1006.5
20260507004551 15 158 1.6 4.8 0.03 0.53 0.53 86 1006.5
20260507003052 15 261 1.6 9.7 0.05 0.53 0.53 86 1006.6
20260507001555 15 0 1.6 8.0 0.18 0.53 0.53 86 1006.4
20260507000044 15 40 0.0 6.4 0.15 0.51 0.51 86 1006.2
20260506234549 15 263 0.0 6.4 0.15 0.51 0.51 86 1006.3
20260506233102 15 0 1.6 6.4 0.15 0.48 0.48 86 1006.2
20260506231546 15 246 1.6 8.0 0.03 0.36 0.36 86 1006.4
20260506230051 15 309 1.6 8.0 0.03 0.36 0.36 86 1006.6
20260506224548 15 163 3.2 8.0 0.03 0.36 0.36 86 1006.6
20260506223049 15 311 1.6 11.3 0.03 0.33 0.33 86 1006.6
20260506221548 15 136 1.6 9.7 0.05 0.33 0.33 86 1006.6
20260506220051 15 306 1.6 8.0 0.08 0.33 0.33 86 1006.6
20260506214552 15 155 1.6 11.3 0.10 0.33 0.33 86 1006.8
20260506213107 15 294 0.0 6.4 0.13 0.30 0.30 86 1007.2
20260506211549 16 52 1.6 8.0 0.15 0.28 0.28 86 1007.2
20260506210056 16 311 0.0 6.4 0.18 0.25 0.25 86 1007.3
20260506204549 16 274 1.6 6.4 0.18 0.23 0.23 85 1007.5
20260506203050 16 175 0.0 8.0 0.15 0.18 0.18 84 1007.4
20260506201550 17 320 1.6 3.2 0.13 0.13 0.13 83 1007.2
20260506200048 17 149 1.6 9.7 0.08 0.08 0.08 81 1007.2
20260506194555 18 355 0.0 8.0 0.05 0.05 0.05 80 1007.3
20260506193047 18 326 1.6 9.7 0.03 0.03 0.03 76 1007.4
20260506191545 19 291 3.2 12.9 0.00 0.00 0.00 71 1007.4
20260506190057 20 0 3.2 8.0 0.00 0.00 0.00 66 1007.5
20260506184549 21 44 3.2 17.7 0.00 0.00 0.00 61 1007.4
20260506183050 21 281 3.2 8.0 0.00 0.00 0.00 60 1007.4
20260506181549 22 287 3.2 19.3 0.00 0.00 0.00 58 1007.3
20260506180058 22 217 4.8 12.9 0.00 0.00 0.00 57 1007.6
20260506174554 22 166 4.8 16.1 0.00 0.00 0.00 57 1007.7
20260506173043 22 167 4.8 16.1 0.00 0.00 0.00 58 1007.7
20260506171556 22 197 4.8 16.1 0.00 0.00 0.00 58 1008.0
20260506170103 22 140 3.2 14.5 0.00 0.00 0.00 58 1008.1
20260506164606 22 123 3.2 12.9 0.00 0.00 0.00 57 1008.1
20260506163111 22 158 3.2 25.7 0.00 0.00 0.00 56 1008.1
20260506161601 22 9 1.6 16.1 0.00 0.00 0.00 58 1008.7
20260506160051 22 337 3.2 12.9 0.00 0.00 0.00 59 1008.8
20260506154608 21 153 3.2 12.9 0.00 0.00 0.00 60 1009.2
20260506153059 21 167 3.2 16.1 0.00 0.00 0.00 62 1009.3
20260506151557 21 267 1.6 12.9 0.00 0.00 0.00 64 1009.7
20260506150047 21 250 3.2 14.5 0.00 0.00 0.00 63 1009.9
20260506144549 21 150 1.6 12.9 0.00 0.00 0.00 65 1009.7
20260506143103 20 211 3.2 14.5 0.00 0.00 0.00 67 1009.6
20260506141553 20 227 3.2 14.5 0.00 0.00 0.00 70 1009.6
20260506140058 19 160 3.2 11.3 0.00 0.00 0.00 69 1009.8
20260506134553 19 240 1.6 14.5 0.00 0.03 0.00 70 1010.0
20260506133055 18 137 3.2 11.3 0.00 0.03 0.00 71 1010.3
20260506131551 18 232 0.0 17.7 0.00 0.03 0.00 73 1010.1
20260506130051 18 98 1.6 9.7 0.00 0.03 0.00 72 1010.2
20260506124549 18 222 3.2 11.3 0.00 0.03 0.00 74 1010.1
20260506123049 17 229 1.6 9.7 0.00 0.03 0.00 74 1010.4
20260506121551 17 292 1.6 11.3 0.00 0.03 0.00 76 1010.0
20260506120057 17 26 3.2 9.7 0.00 0.03 0.00 75 1010.5